Weather History for KCNI - February, 2014

Change the Weather History Date:

Friday, February 7, 2014

  Actual Average (KGVL) Record (KGVL)
Temperature  
Mean Temperature 38 °F 44 °F  
Max Temperature 50 °F 53 °F 75 °F (1932)
Min Temperature 26 °F 35 °F 12 °F (1978)
Degree Days  
Heating Degree Days 27 21  
Month to date heating degree days 151  
Since 1 July heating degree days 2069  
Moisture  
Dew Point 22 °F    
Average Humidity 61    
Maximum Humidity 93    
Minimum Humidity 25    
Precipitation  
Precipitation 0.00 in 0.15 in 2.45 in (1955)
Month to date precipitation 1.09  
Year to date precipitation 6.12  
Sea Level Pressure  
Sea Level Pressure 30.26 in    
Wind  
Wind Speed 2 mph (WNW)    
Max Wind Speed 7 mph    
Max Gust Speed -    
Visibility 8 miles    
Events      
T = Trace of Precipitation, MM = Missing Value Source: NWS Daily Summary

Daily Weather History Graph

Daily Weather History Graph

Search for Another Location

Airport or City:

Trip Planner

Search our weather history database for the weather conditions in past years. The results will help you decide how hot, cold, wet, or windy it might be!

Date:

Astronomy

Feb. 07, 2014 Rise Set
Actual Time 7:30 AM EST 6:13 PM EST
Civil Twilight 7:04 AM EST 6:39 PM EST
Nautical Twilight 6:34 AM EST 7:09 PM EST
Astronomical Twilight 6:05 AM EST 7:38 PM EST
Moon 12:27 PM EST (2/7) 1:43 AM EST (2/7)
Length of Visible Light 11h 35m
Length of Day
10h 43m
First Quarter, 59% of the Moon is Illuminated
Feb 7
First Quarter
Feb 14
Full
Feb 22
Last Quarter
Mar 1
New
Mar 8
First Quarter

Hourly Weather History & Observations

Time (EST) Temp. Windchill Dew Point Humidity Pressure Visibility Wind Dir Wind Speed Gust Speed Precip Events Conditions
12:15 AM 30.2 °F - 24.8 °F 80% 30.26 in 7.0 mi Calm Calm - N/A   Clear
12:35 AM 30.2 °F - 24.8 °F 80% 30.25 in 7.0 mi Calm Calm - N/A   Clear
12:55 AM 30.2 °F 26.7 °F 24.8 °F 80% 30.26 in 5.0 mi SW 3.5 mph - N/A   Haze
1:15 AM 30.2 °F - 24.8 °F 80% 30.25 in 5.0 mi Calm Calm - N/A   Haze
1:35 AM 28.4 °F - 24.8 °F 86% 30.25 in 5.0 mi Calm Calm - N/A   Clear
1:55 AM 28.4 °F - 24.8 °F 86% 30.26 in 4.0 mi Calm Calm - N/A   Clear
2:15 AM 28.4 °F - 24.8 °F 86% 30.25 in 4.0 mi Calm Calm - N/A   Clear
2:35 AM 28.4 °F 23.3 °F 24.8 °F 86% 30.25 in 5.0 mi WNW 4.6 mph - N/A   Clear
2:55 AM 28.4 °F 23.3 °F 26.6 °F 93% 30.25 in 5.0 mi NW 4.6 mph - N/A   Clear
3:15 AM 28.4 °F 24.6 °F 24.8 °F 86% 30.26 in 5.0 mi NW 3.5 mph - N/A   Clear
3:35 AM 28.4 °F 24.6 °F 24.8 °F 86% 30.26 in 4.0 mi WNW 3.5 mph - N/A   Clear
3:55 AM 28.4 °F 24.6 °F 24.8 °F 86% 30.27 in 4.0 mi West 3.5 mph - N/A   Clear
4:15 AM 28.4 °F 24.6 °F 24.8 °F 86% 30.26 in 4.0 mi NW 3.5 mph - N/A   Clear
4:35 AM 28.4 °F 22.2 °F 24.8 °F 86% 30.26 in 4.0 mi NW 5.8 mph - N/A   Clear
4:55 AM 28.4 °F 24.6 °F 24.8 °F 86% 30.26 in 4.0 mi NW 3.5 mph - N/A   Clear
5:15 AM 28.4 °F - 23.0 °F 80% 30.26 in 4.0 mi Calm Calm - N/A   Clear
5:35 AM 26.6 °F - 23.0 °F 86% 30.25 in 3.0 mi Calm Calm - N/A   Clear
5:55 AM 26.6 °F - 23.0 °F 86% 30.25 in 3.0 mi Calm Calm - N/A   Clear
6:15 AM 26.6 °F - 23.0 °F 86% 30.26 in 4.0 mi Calm Calm - N/A   Clear
6:35 AM 26.6 °F - 23.0 °F 86% 30.26 in 4.0 mi Calm Calm - N/A   Clear
6:55 AM 26.6 °F - 23.0 °F 86% 30.27 in 4.0 mi Calm Calm - N/A   Clear
7:15 AM 26.6 °F - 23.0 °F 86% 30.29 in 4.0 mi Calm Calm - N/A   Clear
7:35 AM 26.6 °F - 23.0 °F 86% 30.28 in 5.0 mi Calm Calm - N/A   Clear
7:55 AM 26.6 °F - 23.0 °F 86% 30.28 in 4.0 mi Calm Calm - N/A   Clear
8:15 AM 26.6 °F - 23.0 °F 86% 30.30 in 3.0 mi Calm Calm - N/A   Clear
8:35 AM 26.6 °F 22.6 °F 23.0 °F 86% 30.31 in 4.0 mi WNW 3.5 mph - N/A   Clear
8:55 AM 28.4 °F - 24.8 °F 86% 30.31 in 5.0 mi Calm Calm - N/A   Clear
9:15 AM 30.2 °F - 26.6 °F 86% 30.32 in 7.0 mi Calm Calm - N/A   Clear
9:35 AM 32.0 °F - 24.8 °F 75% 30.31 in 7.0 mi Calm Calm - N/A   Clear
9:55 AM 32.0 °F - 24.8 °F 75% 30.31 in 10.0 mi Calm Calm - N/A   Clear
10:15 AM 33.8 °F - 23.0 °F 65% 30.31 in 10.0 mi Calm Calm - N/A   Clear
10:35 AM 35.6 °F 32.8 °F 24.8 °F 65% 30.32 in 10.0 mi WNW 3.5 mph - N/A   Clear
10:55 AM 37.4 °F 34.9 °F 23.0 °F 56% 30.32 in 10.0 mi WNW 3.5 mph - N/A   Clear
11:15 AM 41.0 °F - 23.0 °F 49% 30.32 in 10.0 mi Calm Calm - N/A   Clear
11:35 AM 42.8 °F 40.1 °F 23.0 °F 46% 30.32 in 10.0 mi West 4.6 mph - N/A   Clear
11:55 AM 42.8 °F 41.1 °F 23.0 °F 46% 30.31 in 10.0 mi West 3.5 mph - N/A   Clear
12:15 PM 42.8 °F 40.1 °F 23.0 °F 46% 30.31 in 10.0 mi West 4.6 mph - N/A   Clear
12:35 PM 44.6 °F 40.7 °F 21.2 °F 39% 30.30 in 10.0 mi WNW 6.9 mph - N/A   Clear
12:55 PM 44.6 °F 40.7 °F 21.2 °F 39% 30.29 in 10.0 mi West 6.9 mph - N/A   Clear
1:15 PM 46.4 °F 42.9 °F 19.4 °F 34% 30.28 in 10.0 mi WNW 6.9 mph - N/A   Clear
1:35 PM 46.4 °F 44.3 °F 15.8 °F 29% 30.26 in 10.0 mi WSW 4.6 mph - N/A   Clear
1:55 PM - - - N/A% - - North - - N/A   Unknown
2:15 PM - - - N/A% - - North - - N/A   Unknown
2:35 PM 50.0 °F - 17.6 °F 28% 30.25 in - NW 4.6 mph - N/A   Unknown
2:55 PM 50.0 °F - 17.6 °F 28% 30.25 in 10.0 mi West 3.5 mph - N/A   Clear
3:15 PM 48.2 °F - 17.6 °F 30% 30.25 in 10.0 mi Calm Calm - N/A   Clear
3:35 PM 48.2 °F - 15.8 °F 27% 30.24 in 10.0 mi West 4.6 mph - N/A   Clear
3:55 PM 48.2 °F - 14.0 °F 25% 30.24 in 10.0 mi WNW 6.9 mph - N/A   Clear
4:15 PM 46.4 °F 44.3 °F 15.8 °F 29% 30.23 in 10.0 mi WNW 4.6 mph - N/A   Clear
4:35 PM 46.4 °F 43.5 °F 15.8 °F 29% 30.23 in 10.0 mi WNW 5.8 mph - N/A   Clear
4:55 PM 44.6 °F 41.4 °F 17.6 °F 34% 30.23 in 10.0 mi WNW 5.8 mph - N/A   Clear
5:15 PM 44.6 °F 42.2 °F 17.6 °F 34% 30.24 in 10.0 mi WNW 4.6 mph - N/A   Clear
5:35 PM 42.8 °F 41.1 °F 17.6 °F 36% 30.24 in 10.0 mi WNW 3.5 mph - N/A   Clear
5:55 PM 42.8 °F 41.1 °F 17.6 °F 36% 30.23 in 10.0 mi WNW 3.5 mph - N/A   Clear
6:15 PM 41.0 °F 37.1 °F 19.4 °F 42% 30.24 in 10.0 mi NW 5.8 mph - N/A   Clear
6:35 PM 39.2 °F 35.9 °F 19.4 °F 45% 30.23 in 10.0 mi WNW 4.6 mph - N/A   Clear
6:55 PM 39.2 °F 35.9 °F 19.4 °F 45% 30.25 in 10.0 mi WNW 4.6 mph - N/A   Clear
7:15 PM 39.2 °F 37.0 °F 19.4 °F 45% 30.25 in 10.0 mi WNW 3.5 mph - N/A   Clear
7:35 PM 37.4 °F 34.9 °F 19.4 °F 48% 30.25 in 10.0 mi WNW 3.5 mph - N/A   Clear
7:55 PM 37.4 °F - 19.4 °F 48% 30.26 in 10.0 mi Calm Calm - N/A   Clear
8:15 PM 37.4 °F 33.8 °F 21.2 °F 52% 30.25 in 10.0 mi WNW 4.6 mph - N/A   Clear
8:35 PM 37.4 °F - 19.4 °F 48% 30.25 in 10.0 mi Calm Calm - N/A   Clear
8:55 PM 37.4 °F - 19.4 °F 48% 30.26 in 10.0 mi Calm Calm - N/A   Clear
9:15 PM 37.4 °F - 19.4 °F 48% 30.25 in 10.0 mi Calm Calm - N/A   Clear
9:35 PM 35.6 °F - 21.2 °F 56% 30.24 in 10.0 mi Calm Calm - N/A   Clear
9:55 PM 35.6 °F - 21.2 °F 56% 30.22 in 10.0 mi Calm Calm - N/A   Clear
10:15 PM 35.6 °F - 19.4 °F 52% 30.22 in 10.0 mi Calm Calm - N/A   Clear
10:35 PM 37.4 °F - 19.4 °F 48% 30.21 in 10.0 mi Calm Calm - N/A   Clear
10:55 PM 35.6 °F - 21.2 °F 56% 30.22 in 10.0 mi Calm Calm - N/A   Clear
11:15 PM 35.6 °F - 21.2 °F 56% 30.23 in 10.0 mi Calm Calm - N/A   Clear
11:35 PM 35.6 °F - 19.4 °F 52% 30.23 in 10.0 mi Calm Calm - N/A   Clear
11:55 PM 35.6 °F - 19.4 °F 52% 30.23 in 10.0 mi Calm Calm - N/A   Scattered Clouds